Location: DARK SKY Beskydy - Park tmavé oblohy, www.darkskybeskydy.cz
(49.4926°N, 18.5016°E)
Time: 17:46:44
(UTC+02:00)

PCSat - Pass Details

Date: 11 August 2024
Orbit: 781 x 793 km, 67.1° (Epoch: 08 September)

Event Time Altitude Azimuth Distance (km) Brightness Sun altitude
Rises 00:31:23 0° 325° (NW) 3,301 13.7 -25.2°
Reaches altitude 10° 00:34:08 10° 337° (NNW) 2,369 13.0 -25.2°
Maximum altitude 00:38:49 29° 37° (NE) 1,442 11.3 -25.3°
Drops below altitude 10° 00:43:29 10° 96° (E) 2,360 11.9 -25.3°
Enters shadow 00:43:45 - 98° (E) 2,443 12.0 -25.3°
